Regional Weather Roundup
Issued by NWS Portland, ME

Current Version | Previous Version | Text Only | Print | Product List | Glossary Off
Versions: 1 2 3 4 5 6 7 8 9 10 11 12 13 14 15 16 17 18 19 20 21 22 23 24 25 26 27 28 29 30 31 32 33 34 35 36 37 38 39 40 41 42 43 44 45 46 47 48 49 50
000 ASUS41 KGYX 181405 RWRGYX WEATHER ROUNDUP FOR MAINE AND NEW HAMPSHIRE NATIONAL WEATHER SERVICE GRAY ME 900 AM EST FRI JAN 18 2019 MEZ002-005-006-010-012-015-018-020-021-024-026-027-029-181500- MAINE CITY SKY/WX TMP DP RH WIND PRES REMARKS PORTLAND CLOUDY 19 8 62 VRB5 30.18S SANFORD CLOUDY 18 9 68 CALM 30.15F BAR HARBOR FLURRIES 26 23 88 S3 30.20F WISCASSET CLOUDY 20 13 74 CALM 30.19F ROCKLAND FLURRIES 30 25 81 S14G21 30.17F WCI 19 FRYEBURG CLOUDY 12 3 67 CALM 30.15F LEWISTONAUBURN CLOUDY 13 4 67 CALM 30.16F AUGUSTA CLOUDY 12 6 77 NW3 30.17F WATERVILLE CLOUDY 12 3 67 MISG 30.14F BANGOR FLURRIES 19 12 74 CALM 30.18F GREENVILLE N/A 9 1 70 S7 30.02F MILLINOCKET LGT SNOW 7 1 76 CALM 30.18F HOULTON LGT SNOW -2 -7 79 CALM 30.16F PRESQUE ISLE CLOUDY 3 -6 66 SE9 30.16S FRENCHVILLE CLOUDY 1 -9 62 SE10 30.06F WCI -15 CARIBOU CLOUDY 3 -7 63 S8 30.13F $$ NHZ002-005-008-009-011-012-014-181500- NEW HAMPSHIRE CITY SKY/WX TMP DP RH WIND PRES REMARKS PORTSMOUTH CLOUDY 22 9 56 CALM 30.14F ROCHESTER CLOUDY 20 10 65 CALM 30.14F NASHUA CLOUDY 21 12 68 NW3 30.15F MANCHESTER CLOUDY 23 11 60 CALM 30.13F CONCORD CLOUDY 19 11 70 CALM 30.14F LACONIA CLOUDY 16 8 71 CALM 30.13F PLYMOUTH CLOUDY 14 8 74 CALM 30.14F BERLIN LGT SNOW 10 2 69 NW3 30.05S WHITEFIELD CLOUDY 11 6 81 CALM 30.05F JAFFREY CLOUDY 23 17 78 CALM 30.07F KEENE CLOUDY 23 15 71 CALM 30.11F LEBANON CLOUDY 19 10 68 CALM 30.09F MT WASHINGTON SNOWSHWR 5 5 100 SW39 N/A VSB 1/16WCI -22 $$ VTZ005-007-008-181500- VERMONT CITY SKY/WX TMP DP RH WIND PRES REMARKS ST JOHNSBURY N/A 13 9 84 MISG 30.06F MONTPELIER CLOUDY 18 13 80 S5 30.06S BURLINGTON PTSUNNY 24 16 71 S13 30.03F WCI 12 $$ MAZ007-012-024-CTZ003-RIZ002-NYZ038-NYZ072-181500- SOUTHERN NEW ENGLAND AND NY CITY SKY/WX TMP DP RH WIND PRES REMARKS BOSTON CLOUDY 33 25 72 CALM 30.15F WORCESTER CLOUDY 24 20 84 SE6 30.08F NANTUCKET LGT SNOW 33 32 96 E8 30.12F FOG PROVIDENCE PTSUNNY 30 22 72 N6 30.14F HARTFORD PTSUNNY 25 12 58 CALM 30.12F ALBANY FLURRIES 28 20 71 S13 30.07F WCI 17 NEW YORK CITY LGT SNOW 33 30 88 NE6 30.11S FOG $$ ANZ081-ANZ082-ANZ150-NHZ014-MEZ023>029-181500- COASTAL MARINE OBSERVATIONS STATION/POSITION TIME TEMP WIND PRES WAVE AIR SEA DIR/SP/G HT/PER (UTC) (F) (DEG/KT/KT) (MB) (FT/S) MOUNT DESERT ROC 1300 29 140/ 17/ 19 1023.6F MATINICUS ROCK 1300 30 140/ 21/ 23 1021.7F ISLE OF SHOALS 1300 32 190/ 8/ 9 1021.1F JEFFREYS LEDGE 1338 43 N/A 2/ 4 CASHES LEDGE BUO 1350 34 40 1021.7F 3/ 4 $$ .............KEY.............. WCI - WIND CHILL TC - TEMPERATURE IN CELSIUS VSB - VISIBILITY IN MILES HX - HEAT INDEX FAIR- INDICATES FEW OR NO CLOUDS BELOW 12,000 FT, WITH NO SIGNIFICANT WEATHER AND/OR OBSTRUCTIONS TO VISIBILITY.

USA.gov is the U.S. government's official web portal to all federal, state and local government web resources and services.